This is the latest recevied weather packets stored in our database for station/object KA3BQE-13. If no packets are shown the sender has not sent any weather packets the latest 10 day(s).
| Time | Temp. | Humidity | Pressure | Rain* | Wind** | Luminosity | Snow |
|---|---|---|---|---|---|---|---|
| 1778177293 | 17.22° C | 39% | 1014.8 hPa | 0 mm | - | 264 W/m² | - |
| 1778176990 | 16.67° C | 41% | 1015 hPa | 0 mm | - | 987 W/m² | - |
| 1778176685 | 17.22° C | 47% | 1015.1 hPa | 0 mm | - | 527 W/m² | - |
| 1778176382 | 17.22° C | 41% | 1015 hPa | 0 mm | - | 1003 W/m² | - |
| 1778176080 | 16.67° C | 42% | 1015.3 hPa | 0 mm | - | 347 W/m² | - |
| 1778175778 | 16.11° C | 44% | 1015.4 hPa | 0 mm | - | 550 W/m² | - |
| 1778175475 | 16.11° C | 44% | 1015.5 hPa | 0 mm | - | 211 W/m² | - |
| 1778175172 | 16.11° C | 43% | 1015.6 hPa | 0 mm | - | 763 W/m² | - |
| 1778174868 | 16.67° C | 44% | 1015.4 hPa | 0 mm | - | 934 W/m² | - |
| 1778174565 | 16.67° C | 45% | 1015.5 hPa | 0 mm | - | 460 W/m² | - |
| 1778174260 | 16.67° C | 43% | 1015.8 hPa | 0 mm | - | 721 W/m² | - |
| 1778173958 | 16.11° C | 43% | 1015.9 hPa | 0 mm | - | 989 W/m² | - |
| 1778173655 | 15.56° C | 46% | 1015.9 hPa | 0 mm | - | 365 W/m² | - |
| 1778173351 | 15.56° C | 44% | 1016.2 hPa | 0 mm | - | 712 W/m² | - |
| 1778173047 | 16.67° C | 44% | 1016.3 hPa | 0 mm | - | 394 W/m² | - |
| 1778172743 | 15° C | 45% | 1016.2 hPa | 0 mm | - | 795 W/m² | - |
| 1778172439 | 15° C | 44% | 1016.5 hPa | 0 mm | - | 289 W/m² | - |
| 1778172137 | 15° C | 44% | 1016.5 hPa | 0 mm | - | 312 W/m² | - |
| 1778171834 | 15.56° C | 42% | 1016.4 hPa | 0 mm | - | 306 W/m² | - |
| 1778171532 | 15.56° C | 45% | 1016.5 hPa | 0 mm | - | 694 W/m² | - |
| 1778171228 | 16.11° C | 45% | 1016.4 hPa | 0 mm | - | 915 W/m² | - |
| 1778170924 | 16.67° C | 42% | 1016.4 hPa | 0 mm | - | 803 W/m² | - |
| 1778170620 | 16.11° C | 43% | 1016.6 hPa | 0 mm | - | 421 W/m² | - |
| 1778170316 | 15.56° C | 42% | 1016.7 hPa | 0 mm | - | 879 W/m² | - |
| 1778170013 | 15° C | 47% | 1016.7 hPa | 0 mm | - | 460 W/m² | - |
* Rain latest hour (hover to see other rain measurements)
** Current wind speed in m/s (hover to see current wind gust speed)